Falls City, NE

1:40 PM CST on December 11, 2017 (GMT -0600)
Brenner

Weather History for KFNB - August, 2013

Change the Weather History Date:

Thursday, August 15, 2013

  Actual Average Record
Temperature  
Mean Temperature 64 °F -  
Max Temperature 68 °F 85 °F 103 °F (1956)
Min Temperature 60 °F 64 °F 48 °F (1992)
Degree Days  
Heating Degree Days 1    
Growing Degree Days 14 (Base 50)    
Moisture  
Dew Point 60 °F    
Average Humidity 89    
Maximum Humidity 100    
Minimum Humidity 68    
Precipitation  
Precipitation 1.84 in - - ()
Sea Level Pressure  
Sea Level Pressure 30.09 in    
Wind  
Wind Speed 8 mph (ESE)    
Max Wind Speed 15 mph    
Max Gust Speed 20 mph    
Visibility 6 miles    
Events Fog , Rain , Thunderstorm    
Averages and records for this station are not official NWS values.
T = Trace of Precipitation, MM = Missing Value Source: NWS Daily Summary

Daily Weather History Graph

Daily Weather History Graph

Search for Another Location

Airport or City:

Trip Planner

Search our weather history database for the weather conditions in past years. The results will help you decide how hot, cold, wet, or windy it might be!

Date:

Astronomy

Aug. 15, 2013 Rise Set
Actual Time 6:34 AM CDT 8:18 PM CDT
Civil Twilight 6:05 AM CDT 8:47 PM CDT
Nautical Twilight 5:29 AM CDT 9:22 PM CDT
Astronomical Twilight 4:52 AM CDT 10:00 PM CDT
Moon 3:37 PM CDT (8/15) 12:44 AM CDT (8/15)
Length of Visible Light 14h 42m
Length of Day
13h 44m
Waxing Gibbous, 64% of the Moon is Illuminated
Aug 15
Waxing Gibbous
Aug 20
Full
Aug 28
Last Quarter
Sep 5
New
Sep 12
First Quarter

Hourly Weather History & Observations

Time (CDT) Temp. Dew Point Humidity Pressure Visibility Wind Dir Wind Speed Gust Speed Precip Events Conditions
12:53 AM 68.0 °F 57.0 °F 68% 30.09 in 10.0 mi South 4.6 mph - N/A   Overcast
1:53 AM 66.0 °F 57.9 °F 75% 30.07 in 10.0 mi SE 6.9 mph - N/A   Overcast
2:53 AM 66.9 °F 57.0 °F 70% 30.07 in 10.0 mi South 8.1 mph - N/A   Overcast
3:53 AM 66.9 °F 55.9 °F 68% 30.06 in 10.0 mi South 9.2 mph - N/A   Overcast
4:53 AM 66.0 °F 55.9 °F 70% 30.06 in 10.0 mi SSE 4.6 mph - N/A   Overcast
5:53 AM 66.0 °F 55.9 °F 70% 30.05 in 10.0 mi South 9.2 mph - N/A   Overcast
6:53 AM 64.0 °F 57.9 °F 80% 30.06 in 7.0 mi SE 4.6 mph - 0.02 in Rain Light Rain
7:53 AM 62.1 °F 59.0 °F 90% 30.07 in 10.0 mi SE 6.9 mph - 0.11 in Rain Light Rain
8:49 AM 60.8 °F 59.0 °F 94% 30.13 in 3.0 mi ENE 11.5 mph 19.6 mph 0.12 in Rain Heavy Rain
8:53 AM 61.0 °F 59.0 °F 93% 30.11 in 2.0 mi East 11.5 mph 19.6 mph 0.16 in Rain Heavy Rain
9:04 AM 60.8 °F 60.8 °F 100% 30.11 in 3.0 mi ESE 15.0 mph - 0.07 in Rain Heavy Rain
9:07 AM 60.8 °F 59.0 °F 94% 30.11 in 1.8 mi ESE 13.8 mph - 0.14 in Rain Heavy Rain
9:24 AM 60.8 °F 60.8 °F 100% 30.12 in 3.0 mi East 11.5 mph - 0.27 in Rain Light Rain
9:34 AM 60.8 °F 60.8 °F 100% 30.15 in 2.5 mi Variable 5.8 mph - 0.33 in Rain , Thunderstorm Heavy Rain
9:40 AM 60.8 °F 60.8 °F 100% 30.15 in 0.8 mi Variable 3.5 mph - 0.49 in Rain , Thunderstorm Heavy Rain
9:46 AM 60.8 °F 59.0 °F 94% 30.12 in 0.8 mi ESE 11.5 mph - 0.56 in Rain , Thunderstorm Heavy Thunderstorms and Rain
9:53 AM 60.1 °F 59.0 °F 96% 30.10 in 2.5 mi ESE 12.7 mph - 0.57 in Rain , Thunderstorm Thunderstorms and Rain
10:00 AM 60.8 °F 59.0 °F 94% 30.10 in 3.0 mi SE 11.5 mph - 0.02 in Rain , Thunderstorm Thunderstorms and Rain
10:05 AM 60.8 °F 59.0 °F 94% 30.10 in 3.0 mi SE 9.2 mph - 0.03 in Rain , Thunderstorm Light Rain
10:26 AM 60.8 °F 59.0 °F 94% 30.11 in 7.0 mi ESE 10.4 mph - 0.05 in Rain Rain
10:53 AM 61.0 °F 60.1 °F 97% 30.09 in 10.0 mi SE 9.2 mph - 0.08 in Rain Light Rain
11:35 AM 60.8 °F 59.0 °F 94% 30.14 in 1.5 mi East 3.5 mph - 0.13 in Rain Heavy Rain
11:43 AM 60.8 °F 59.0 °F 94% 30.15 in 0.5 mi Calm Calm - 0.40 in Fog , Rain Heavy Rain
11:50 AM 60.8 °F 59.0 °F 94% 30.14 in 0.5 mi Variable 4.6 mph - 0.54 in Fog , Rain , Thunderstorm Heavy Thunderstorms and Rain
11:53 AM 60.1 °F 59.0 °F 96% 30.12 in 0.8 mi ESE 10.4 mph - 0.62 in Rain , Thunderstorm Heavy Thunderstorms and Rain
12:00 PM 60.8 °F 59.0 °F 94% 30.13 in 1.0 mi SE 10.4 mph - 0.04 in Rain , Thunderstorm Heavy Thunderstorms and Rain
12:06 PM 60.8 °F 59.0 °F 94% 30.13 in 3.0 mi SE 8.1 mph - 0.05 in Rain , Thunderstorm Rain
12:21 PM 60.8 °F 60.8 °F 100% 30.12 in 4.0 mi SSE 6.9 mph - 0.08 in Rain Rain
12:53 PM 60.1 °F 59.0 °F 96% 30.06 in 7.0 mi SE 13.8 mph 19.6 mph 0.12 in Rain Rain
1:53 PM 64.0 °F 61.0 °F 90% 30.06 in 10.0 mi SE 11.5 mph 16.1 mph 0.02 in   Clear
2:53 PM 66.0 °F 62.1 °F 87% 30.04 in 10.0 mi SSE 12.7 mph - N/A   Clear
3:53 PM 66.9 °F 60.1 °F 79% 30.03 in 10.0 mi SE 11.5 mph - N/A   Mostly Cloudy
4:53 PM 66.9 °F 61.0 °F 81% 30.03 in 10.0 mi SE 6.9 mph - N/A   Overcast
5:53 PM 66.9 °F 60.1 °F 79% 30.02 in 10.0 mi ESE 11.5 mph - N/A   Overcast
6:53 PM 66.9 °F 61.0 °F 81% 30.03 in 10.0 mi ESE 6.9 mph - N/A   Overcast
7:07 PM 66.2 °F 60.8 °F 83% 30.04 in 10.0 mi SE 6.9 mph - N/A Thunderstorm Overcast
7:53 PM 64.9 °F 62.1 °F 90% 30.04 in 10.0 mi ESE 5.8 mph - 0.01 in Rain , Thunderstorm Light Rain
8:00 PM 64.4 °F 62.6 °F 94% 30.05 in 6.0 mi ESE 5.8 mph - 0.03 in Rain Heavy Rain
8:53 PM 64.0 °F 62.1 °F 93% 30.04 in 10.0 mi East 5.8 mph - 0.04 in   Mostly Cloudy
9:10 PM 64.4 °F 62.6 °F 94% 30.06 in 10.0 mi East 4.6 mph - N/A Thunderstorm Overcast
9:53 PM 64.0 °F 62.1 °F 93% 30.09 in 10.0 mi NE 8.1 mph - N/A Thunderstorm Thunderstorm
10:27 PM 64.4 °F 60.8 °F 88% 30.09 in 6.0 mi East 10.4 mph - 0.08 in Rain , Thunderstorm Heavy Thunderstorms and Rain
10:53 PM 63.0 °F 60.1 °F 90% 30.07 in 10.0 mi ESE 12.7 mph 18.4 mph 0.09 in Thunderstorm Thunderstorm
11:01 PM 64.4 °F 60.8 °F 88% 30.08 in 10.0 mi ESE 11.5 mph 19.6 mph N/A   Overcast